Regional Weather Roundup
Issued by NWS Newport/Morehead, NC

Current Version | Previous Version | Text Only | Print | Product List | Glossary Off
Versions: 1 2 3 4 5 6 7 8 9 10 11 12 13 14 15 16 17 18 19 20 21 22 23 24 25 26 27 28 29 30 31 32 33 34 35 36 37 38 39 40 41 42 43 44 45 46 47 48 49 50
000 ASUS42 KMHX 291313 RWRMHX WEATHER ROUNDUP FOR EASTERN NORTH CAROLINA NATIONAL WEATHER SERVICE NEWPORT/MOREHEAD CITY NC 900 AM EDT FRI JUL 29 2016 NOTE: "FAIR" INDICATES FEW OR NO CLOUDS BELOW 12,000 FEET WITH NO SIGNIFICANT WEATHER AND/OR OBSTRUCTIONS TO VISIBILITY NCZ015>017-031-032-045>047-102-103-291400- NORTH COAST CITY SKY/WX TMP DP RH WIND PRES REMARKS EDENTON SUNNY 86 71 60 W7 29.88R ELIZABETH CITY SUNNY 85 72 65 W14 29.85S KITTY HAWK SUNNY 87 73 61 SW9G16 29.85S MANTEO N/A 85 75 71 W13 29.87S $$ NCZ045>047-081-094-103-104-291400- CENTRAL COAST CITY SKY/WX TMP DP RH WIND PRES REMARKS FRISCO SUNNY 83 77 82 SW12 29.90R $$ NCZ095-097-098-100-101-291400- SOUTHERN COAST CITY SKY/WX TMP DP RH WIND PRES REMARKS BEAUFORT SUNNY 85 78 80 SW9 29.91S CEDAR ISLAND NOT AVBL JACKSONVILLE SUNNY 85 73 67 W10 29.90S PINEY ISLAND NOT AVBL WILMINGTON SUNNY 86 73 65 SW16 29.93R $$ NCZ011>013-027>030-043-044-078>080-089-090>093-098-291400- COASTAL PLAIN CITY SKY/WX TMP DP RH WIND PRES REMARKS AHOSKIE SUNNY 81 73 77 CALM 29.87S CLINTON SUNNY 84 73 71 SW13 29.92R ELIZABETHTOWN SUNNY 84 72 67 SW9 29.93R GOLDSBORO SUNNY 85 74 68 SW14 29.88R GREENVILLE SUNNY 84 73 70 W10 29.90S HAVELOCK SUNNY 86 74 67 SW10 29.91R KENANSVILLE NOT AVBL KINSTON SUNNY 84 72 65 SW7 29.90R NEW BERN SUNNY 86 74 67 SW9G16 29.91R RICHLANDS SUNNY 87 75 67 SW9 29.91S ROCKY MOUNT SUNNY 83 73 72 W7 29.89R WASHINGTON SUNNY 83 74 73 W10 29.88S WHITEVILLE SUNNY 84 72 67 SW7 29.94R $$ AMZ130-135-150-152-154-156-158-170-250-252-270-ANZ085-086-088-633-658-670-291400- MARINE OBSERVATIONS STATION/POSITION TIME TEMP WIND PRES WAVE SWELL AIR SEA DIR/SP/G HT/PER HT/PER (UTC) (F) (DEG/KT/KT) (MB) (FT/S) (FT/S) CHESAPEAKE LIGHT NOT AVBL 64 E VA BEACH 1250 83 83 220/ 14/ 17 1010.2 3/ 5 2/ 8 DUCK 1200 83 66 230/ 13/ 16 1010.1 2 E DUCK 1211 72 N/A 1/14 OREGON INLET 1200 84 84 230/ 16/ 18 1011.2 13E OREGON INLT 1200 80 N/A 3/ 5 2/14 HATTERAS CG 1200 83 83 230/ 8/ 11 1012.0 DIAMOND BUOY 1250 84 85 240/ 17/ 19 1012.5 4/ 6 2/ 9 CAPE LOOKOUT 1300 86 250/ 14/ 18 1012.6 BEAUFORT LAB 1200 84 83 240/ 5/ 11 1012.3 30 SE NEW RVR IN 1208 85 85 250/ 14/ 21 1013.2 30 SE NEW RVR IN 1225 85 N/A 5/ 6 27 SE WRIGHTSVLE 1208 85 84 240/ 14/ 19 1013.7 5 SE WRIGHTSVLE 1208 81 80 260/ 10/ 14 1014.2 225 S CAPE HAT 1250 84 84 230/ 8/ 10 1016.7 3/ 6 3/ 6 41 SE CHARLESTON 1250 85 85 280/ 14/ 16 1015.1 4/ 5 2/ 8 $$

USA.gov is the U.S. government's official web portal to all federal, state and local government web resources and services.